www.pogodaiklimat.ru

Погода и климат >> Архив погоды >> Испания >> Сантандер


ПОГОДА в Сантандере

  • Прогноз погоды в Сантандере
  • Монитор погоды в Сантандере

АРХИВ ПОГОДЫ в Сантандере

Время (UTC), дата Ветер
(напр.,м/с)
 
Видим.   Явления Облачность Т
(С)
Тd
(С)
f
(%)
Тe
(С)
Тes
(С)
Комфортность P
(гПа)
Po
(гПа)
Тmin
(С)
Tmax
(С)
R
(мм)
R24
(мм)
S
(см)
10 12.06 З 9 16 км в посл. час морось н/о +15.2 +9.8 70 +13 +13 1015.4 1008.4 0.0
11 12.06 З 9 15 км н/о +15.9 +9.8 67 +14 +14 1015.4 1008.4
12 12.06 З 8 25 км {дождь} 9/1 1000 м
[Cu med, cong Ac As]
+15.0 +9.8 71 +13 +14 1015.7 1008.7 0.0
13 12.06 З 8 13 км в посл. час дождь н/о +15.9 +10.9 72 +14 +14 1015.4 1008.4 0.0
14 12.06 СЗ 7 12 км н/о +15.4 +10.4 72 +14 +14 1015.4 1008.4
15 12.06 СЗ 6 20 км {дождь} 8/3 1000 м
[Cu Sc Ac As Ci sp]
+16.1 +11.5 74 +15 +17 1015.2 1008.2 0.0
16 12.06 З 6 15 км н/о +16.1 +10.6 70 +15 +15 1015.1 1008.1
17 12.06 З 6 14 км н/о +16.1 +10.8 71 +15 +15 1014.9 1007.9
18 12.06 СЗ 5 25 км {дождь} 8/5 600 м
[Cu Sc Ac trans Ci sp]
+15.4 +10.8 74 +14 +15 1015.0 1008.0 +16.7
19 12.06 З 4 13 км н/о +14.5 +10.3 76 +13 +13 1015.3 1008.2
20 12.06 З 3 12 км н/о +13.7 +9.9 78 +13 +13 1015.3 1008.2
21 12.06 ЮЗ 2 20 км 8/5 600 м
[Cu Sc Ac trans]
+13.8 +10.4 80 +14 +14 1015.6 1008.5
22 12.06 ЮЗ 2 12 км в посл. час морось н/о +13.8 +10.6 81 +13 +13 1015.3 1008.2 0.0
23 12.06 ЮЗ 2 11 км н/о +13.0 +10.0 82 +12 +12 1014.8 1007.7
00 13.06 ЮЗ 3 15 км 5/5 600 м
[Cu Sc]
+13.1 +10.1 82 +12 +12 1014.2 1007.1 0.0
01 13.06 ЮЗ 2 12 км н/о +12.6 +9.8 83 +12 +12 1013.6 1006.5
02 13.06 Ю 2 12 км н/о +12.6 +9.8 83 +12 +12 1013.3 1006.2
03 13.06 ЮЗ 2 15 км 9/1 600 м
[Cu hum Ac und]
+12.7 +10.2 85 +12 +12 1012.9 1005.8
04 13.06 Ю 3 10 км н/о +11.8 +9.5 86 +10 +10 1012.8 1005.7
05 13.06 Ю 3 11 км н/о +11.8 +9.7 87 +10 +10 1013.1 1006.0
06 13.06 Ю 1 14 км 8/1 600 м
[Sc Ac trans]
+14.0 +11.7 86 +14 +15 1012.9 1005.9 +11.5
07 13.06 ЮВ 2 15 км н/о +15.4 +12.5 83 +16 +16 1013.0 1006.0
08 13.06 СВ 2 13 км н/о +16.2 +12.0 76 +16 +16 1012.9 1005.9
09 13.06 СВ 3 20 км 8/4 600 м
[Cu Sc Ac und Ci sp]
+15.6 +11.6 77 +15 +19 1012.9 1005.9
10 13.06 СВ 4 11 км н/о +16.0 +12.4 79 +15 +15 1012.8 1005.8
11 13.06 СВ 5 12 км н/о +16.1 +12.1 77 +15 +15 1012.4 1005.4
12 13.06 СВ 6 20 км 8/4 1000 м
[Cu Sc Ac und Ci fib]
+16.6 +12.1 75 +16 +19 1012.3 1005.3
13 13.06 СВ 6 12 км н/о +16.7 +12.6 77 +16 +16 1012.2 1005.2
14 13.06 СВ 5 12 км н/о +15.8 +11.8 77 +15 +15 1012.5 1005.5
15 13.06 СВ 4 18 км 9/8 600 м
[Cu Sc Ac und]
+15.5 +11.5 77 +15 +16 1012.6 1005.6
16 13.06 С 4 11 км н/о +14.9 +11.3 79 +14 +14 1013.0 1006.0
17 13.06 С 5 14 км н/о +14.8 +11.2 79 +13 +13 1013.3 1006.3
18 13.06 С 3 18 км 9/6 600 м
[Cu Sc Ac und]
+14.9 +11.3 79 +14 +14 1013.7 1006.7 +17.2
19 13.06 С 2 12 км н/о +14.6 +11.4 81 +14 +14 1014.1 1007.1
20 13.06 С 2 12 км н/о +14.4 +11.2 81 +14 +14 1014.6 1007.6
21 13.06 С 2 15 км 9/6 600 м
[Cu Sc Ac und]
+14.1 +10.9 81 +14 +14 1015.4 1008.3
22 13.06 В 1 12 км н/о +13.4 +10.2 81 +14 +14 1015.6 1008.5
23 13.06 Ю 2 8000 м н/о +13.1 +10.1 82 +12 +12 1015.4 1008.3
00 14.06 Ю 2 15 км ясно +13.1 +10.6 85 +13 +13 1015.0 1007.9
01 14.06 Ю 3 н/о н/о +12.2 +10.1 87 +11 +11 1014.5 1007.4
02 14.06 ЮВ 3 10 км н/о +11.8 +10.2 90 +10 +10 1014.0 1006.9
03 14.06 ЮВ 3 15 км 3/0
[Ci fib]
+11.6 +10.0 90 +10 +10 1013.7 1006.6
04 14.06 Ю 3 11 км н/о +11.7 +10.3 91 +10 +10 1013.6 1006.5
05 14.06 ЮВ 2 12 км н/о +12.1 +10.7 91 +11 +11 1013.8 1006.7
06 14.06 ЮВ 2 20 км 8/6 600 м
[Sc Ac und Ci sp]
+12.9 +11.5 91 +12 +13 1013.8 1006.7 +11.5
07 14.06 В 3 15 км н/о +14.0 +12.6 91 +13 +13 1013.8 1006.8
08 14.06 В 4 17 км н/о +15.4 +13.1 86 +15 +15 1013.9 1006.9
09 14.06 СВ 3 30 км 8/8 600 м
[Sc diur, vesp]
+15.7 +12.8 83 +15 +17 1014.1 1007.1
10 14.06 СВ 4 12 км н/о +15.8 +12.7 82 +15 +15 1014.1 1007.1
11 14.06 СВ 5 14 км н/о +16.4 +13.1 81 +15 +15 1014.1 1007.1
12 14.06 СВ 5 30 км 9/9 1000 м
[Sc diur, vesp]
+16.2 +12.9 81 +15 +16 1014.3 1007.3
13 14.06 СВ 4 13 км н/о +15.5 +12.6 83 +14 +14 1014.6 1007.6
14 14.06 СВ 4 12 км н/о +15.3 +12.4 83 +14 +14 1014.7 1007.7
15 14.06 СВ 4 30 км 10/10 600 м
[Cu Sc]
+14.8 +12.1 84 +14 +14 1015.1 1008.1
16 14.06 С 1 12 км н/о +15.0 +12.3 84 +15 +15 1015.2 1008.2
17 14.06 В 1 17 км н/о +15.6 +12.5 82 +16 +16 1015.2 1008.2
18 14.06 СВ 1 20 км 4/4 600 м
[Cu Sc Ac cast]
+16.3 +12.5 78 +17 +19 1015.5 1008.5 +17.0
19 14.06 С 2 13 км н/о +15.8 +12.0 78 +16 +16 1016.2 1009.2
20 14.06 З 1 11 км н/о +14.5 +11.3 81 +15 +15 1016.9 1009.8
21 14.06 З 2 15 км 5/3 1000 м
[Cu Sc Ac und]
+13.9 +11.1 83 +13 +13 1017.9 1010.8
22 14.06 ЮЗ 2 9000 м н/о +13.9 +11.4 85 +14 +14 1018.3 1011.2
23 14.06 ЮЗ 2 10 км н/о +13.9 +11.4 85 +13 +13 1018.5 1011.4
00 15.06 ЮЗ 3 15 км 6/1 1000 м
[Cu Sc Ac und]
+13.7 +11.2 85 +12 +12 1018.6 1011.5
01 15.06 З 3 9000 м н/о +14.0 +11.3 84 +13 +13 1018.8 1011.7
02 15.06 ЮЗ 2 10 км н/о +13.9 +11.4 85 +13 +13 1018.9 1011.8
03 15.06 Ю 3 15 км 6/1 1000 м
[Cu Sc Ac cuf]
+13.8 +11.5 86 +13 +13 1018.9 1011.8
04 15.06 ЮЗ 3 9000 м н/о +13.6 +11.3 86 +12 +12 1019.0 1011.9
05 15.06 Ю 4 11 км н/о +13.4 +11.1 86 +12 +12 1019.1 1012.0
06 15.06 ЮЗ 2 20 км 5/1 1000 м
[Cu Sc Ac und]
+15.6 +12.5 82 +15 +16 1019.5 1012.5 +13.3
07 15.06 ЮЗ 2 17 км н/о +16.2 +12.7 80 +16 +16 1020.1 1013.1
08 15.06 З 2 18 км н/о +18.0 +12.2 69 +19 +19 1020.6 1013.6
09 15.06 С 2 14 км 1/1 600 м
[Cu hum Ac trans Ci sp]
+17.1 +12.2 73 +17 +27 1020.8 1013.8
10 15.06 С 3 15 км н/о +17.6 +12.5 72 +18 +18 1021.2 1014.2
11 15.06 С 4 16 км н/о +17.3 +11.6 69 +17 +17 1021.5 1014.5
12 15.06 С 3 16 км 1/1 600 м
[Cu hum Ci sp]
+18.1 +12.8 71 +18 +33 опасность
простуды
1021.5 1014.5
13 15.06 С 4 16 км н/о +17.9 +12.3 70 +18 +18 1021.8 1014.8
14 15.06 С 4 15 км н/о +18.0 +13.1 73 +18 +18 1022.0 1015.0
15 15.06 С 4 16 км 9/8 600 м
[Sc Ci fib]
+17.2 +11.9 71 +17 +19 1022.5 1015.5
16 15.06 С 2 16 км н/о +17.4 +12.5 73 +18 +18 1022.5 1015.5
17 15.06 СЗ 2 16 км н/о +16.8 +11.5 71 +17 +17 1022.7 1015.7
18 15.06 СЗ 2 16 км 9/9 600 м
[Sc]
+16.4 +11.5 73 +17 +17 1023.1 1016.0 +18.3
19 15.06 СЗ 1 20 км н/о +16.2 +11.4 73 +17 +17 1023.2 1016.1
20 15.06 СЗ 1 19 км н/о +15.8 +11.2 74 +16 +16 1023.2 1016.1
21 15.06 С 1 25 км 9/9 1000 м
[Sc]
+15.7 +11.3 75 +17 +17 1023.6 1016.5
22 15.06 С 1 19 км н/о +15.5 +11.3 76 +16 +16 1023.7 1016.6
23 15.06 СВ 2 15 км н/о +14.9 +11.1 78 +15 +15 1023.3 1016.2
00 16.06 В 2 20 км 1/0
[Ci fib]
+14.3 +11.1 81 +14 +14 1023.1 1016.0
01 16.06 ЮВ 3 15 км н/о +13.2 +10.6 84 +12 +12 1022.4 1015.3
02 16.06 ЮВ 3 20 км н/о +13.0 +10.5 85 +12 +12 1022.0 1014.9
03 16.06 Ю 1 25 км 3/0
[Ci fib]
+13.1 +10.5 84 +13 +13 1021.6 1014.5
04 16.06 ЮВ 3 14 км н/о +12.2 +9.9 86 +11 +11 1021.5 1014.3
05 16.06 ЮВ 3 20 км н/о +12.0 +9.7 86 +10 +10 1021.4 1014.2
06 16.06 ЮВ 3 30 км 1/0
[Ci fib]
+14.0 +11.3 84 +13 +14 1021.2 1014.1 +12.0
07 16.06 В 4 19 км н/о +15.9 +12.5 80 +15 +15 1021.4 1014.3
08 16.06 В 7 20 км н/о +16.8 +12.9 78 +16 +16 1021.1 1014.1
09 16.06 В 7 30 км 1/0
[Ci fib]
+17.3 +13.6 79 +16 +19 1020.7 1013.7
10 16.06 В 8 20 км н/о +17.5 +14.0 80 +16 +16 1020.4 1013.4
11 16.06 В 8 20 км н/о +18.0 +14.3 79 +17 +17 1019.9 1012.9
12 16.06 В 8 15 км 1/0
[Ci fib]
+18.1 +14.6 80 +17 +21 1019.5 1012.5
13 16.06 В 7 19 км н/о +18.2 +14.9 81 +18 +18 1019.0 1012.0
14 16.06 В 8 18 км н/о +18.1 +14.8 81 +17 +17 1018.8 1011.8
15 16.06 В 7 10 км 3/0
[Ci fib]
+18.3 +15.2 82 +18 +21 1018.7 1011.7
16 16.06 СВ 6 15 км н/о +18.3 +15.0 81 +18 +18 1018.6 1011.6
17 16.06 СВ 5 12 км н/о +17.9 +14.6 81 +17 +17 1018.8 1011.8
18 16.06 СВ 4 15 км 8/0
[Cs]
+17.6 +14.3 81 +17 +19 1019.2 1012.2 +18.5
19 16.06 СВ 3 7000 м н/о +16.6 +14.1 85 +16 +16 1019.5 1012.5
20 16.06 СВ 3 6000 м н/о +16.0 +13.8 87 +16 +16 1019.5 1012.5
21 16.06 СВ 2 12 км 8/0
[Ci sp]
+15.8 +14.0 89 +16 +16 1020.0 1013.0
22 16.06 С 1 4700 м н/о +15.6 +14.0 90 +16 +16 1020.2 1013.1
23 16.06 СВ 1 8000 м н/о +15.3 +13.8 91 +16 +16 1019.7 1012.6
00 17.06 СЗ 1 12 км 4/1 600 м
[Sc Ci sp]
+15.2 +13.9 92 +16 +16 1019.4 1012.3
01 17.06 штиль 0 8000 м н/о +15.1 +13.8 92 +15 +15 1018.8 1011.7
02 17.06 ЮЗ 1 9000 м н/о +15.0 +13.9 93 +15 +15 1018.2 1011.1
03 17.06 З 3 10 км 5/1 600 м
[Sc Ci sp]
+14.6 +13.6 94 +14 +14 1017.9 1010.8
04 17.06 З 3 н/о н/о +14.4 +13.4 94 +14 +14 1017.5 1010.4
05 17.06 ЮЗ 2 7000 м н/о +14.8 +14.0 95 +15 +15 1017.3 1010.3
06 17.06 ЮЗ 2 6000 м 10/10 300 м
[St]
+15.2 +14.2 94 +15 +15 1017.0 1010.0 +14.3
07 17.06 З 1 5000 м н/о +15.5 +14.5 94 +16 +16 1016.8 1009.8
08 17.06 СЗ 2 4300 м н/о +15.7 +14.7 94 +16 +16 1016.7 1009.7
09 17.06 С 2 6000 м дымка {туман} 10/10 300 м
[St]
+15.9 +14.8 93 +16 +16 1016.6 1009.6
10 17.06 С 2 7000 м н/о +16.5 +15.0 91 +17 +17 1016.1 1009.1
11 17.06 С 3 6000 м н/о +17.3 +15.5 89 +17 +17 1015.7 1008.7
12 17.06 С 3 8000 м дымка 6/6 300 м
[St]
+17.6 +15.8 89 +18 +24 1014.9 1007.9
13 17.06 С 2 7000 м н/о +17.9 +15.9 88 +18 +18 1014.6 1007.6
14 17.06 СЗ 3 11 км н/о +17.4 +15.2 87 +18 +18 1014.5 1007.5
15 17.06 З 4 12 км 9/9 600 м
[St]
+17.4 +15.0 86 +17 +18 1014.7 1007.7
16 17.06 З 5 13 км н/о +17.0 +14.6 86 +16 +16 1014.8 1007.8
17 17.06 З 5 15 км н/о +16.9 +14.5 86 +16 +16 1014.6 1007.6
18 17.06 З 6 12 км 10/10 600 м
[St]
+16.8 +14.6 87 +16 +16 1014.8 1007.8 +18.0
19 17.06 З 3 14 км н/о +16.5 +14.3 87 +16 +16 1014.1 1007.1
20 17.06 З 4 13 км н/о +16.3 +14.1 87 +16 +16 1014.7 1007.7
21 17.06 ЮЗ 2 18 км 10/3 600 м
[St Ac As Cs]
+16.1 +13.9 87 +16 +16 1014.8 1007.8
22 17.06 З 3 9000 м н/о +15.9 +13.9 88 +15 +15 1014.5 1007.5
23 17.06 СЗ 2 6000 м н/о +15.9 +14.1 89 +16 +16 1014.5 1007.5
00 18.06 З 3 10 км 10/0
[Ac As Cs]
+15.8 +14.2 90 +15 +15 1013.6 1006.6
01 18.06 ЮЗ 2 7000 м н/о +15.6 +14.1 91 +16 +16 1012.9 1005.9
02 18.06 Ю 1 7000 м н/о +15.2 +13.7 91 +16 +16 1011.7 1004.7
03 18.06 ЮВ 3 5000 м дымка 8/0
[Ac As Ci sp]
+14.7 +13.4 92 +14 +14 1010.9 1003.9
04 18.06 В 1 н/о н/о +14.7 +13.6 93 +15 +15 1010.6 1003.6
05 18.06 СВ 2 4900 м н/о +15.2 +14.1 93 +15 +15 1010.6 1003.6
06 18.06 З 1 5000 м дымка 5/0
[Ac As]
+16.9 +15.8 93 +18 +19 1010.8 1003.9 +14.4
07 18.06 З 1 6000 м н/о +18.0 +16.7 92 +19 +19 1010.5 1003.6
08 18.06 СВ 2 н/о н/о +17.9 +16.2 90 +19 +19 1010.1 1003.2
09 18.06 В 4 6000 м дымка 3/0
[Ac lent Cc]
+18.7 +16.7 88 +20 +26 1009.3 1002.4
10 18.06 ЮВ 5 10 км н/о +21.3 +19.0 87 +26 +26 душно 1008.3 1001.5
11 18.06 СВ 3 9000 м н/о +21.8 +19.0 84 +27 +27 душно 1008.0 1001.2
12 18.06 З 6 6000 м дымка 3/1 600 м
[St Ac lent]
+19.6 +17.2 86 +22 +27 комфорт 1008.4 1001.5
13 18.06 СЗ 8 7000 м н/о +17.7 +15.5 87 +17 +17 1009.8 1002.9
14 18.06 СЗ 6 10 км н/о +17.3 +15.3 88 +17 +17 1010.2 1003.3
15 18.06 СЗ 5 9000 м дымка 10/10 600 м
[St]
+17.9 +15.7 87 +18 +18 1010.3 1003.4
16 18.06 З 6 11 км н/о +17.9 +15.3 85 +17 +17 1010.3 1003.4
17 18.06 З 6 12 км н/о +17.8 +15.2 85 +17 +17 1010.2 1003.3
18 18.06 З 4 9000 м дымка 4/4 1000 м
[Sc]
+17.7 +15.0 84 +18 +19 1010.3 1003.4 +23.4
19 18.06 С 3 9000 м н/о +17.0 +14.8 87 +17 +17 1011.0 1004.0
20 18.06 СЗ 3 7000 м н/о +16.0 +14.2 89 +16 +16 1011.7 1004.7
21 18.06 ЮЗ 2 8000 м дымка 4/4 1000 м
[Sc]
+15.6 +14.0 90 +16 +16 1012.5 1005.5
22 18.06 ЮЗ 1 8000 м н/о +15.8 +14.3 91 +16 +16 1012.4 1005.4
23 18.06 В 1 6000 м н/о +15.8 +14.3 91 +17 +17 1011.9 1004.9
00 19.06 ЮЗ 1 7000 м дымка 5/4 1000 м
[Sc Ac trans]
+15.8 +14.5 92 +17 +17 1011.6 1004.6
01 19.06 СЗ 2 н/о н/о +15.8 +14.5 92 +16 +16 1011.5 1004.5
02 19.06 В 2 3600 м н/о +15.6 +14.3 92 +16 +16 1011.6 1004.6
03 19.06 В 2 5000 м дымка 6/5 600 м
[Sc Ac trans]
+15.2 +14.1 93 +15 +15 1011.9 1004.9
04 19.06 ЮВ 2 5000 м н/о +15.0 +14.0 94 +15 +15 1012.3 1005.3
05 19.06 ЮВ 4 4500 м н/о +15.2 +14.2 94 +14 +14 1012.5 1005.5
06 19.06 З 2 6000 м дымка 8/8 1000 м
[Sc Ac trans Ci sp]
+15.8 +14.8 94 +16 +16 1012.6 1005.6 +14.8
07 19.06 СЗ 2 6000 м н/о +17.0 +16.0 94 +18 +18 1013.1 1006.1
08 19.06 СЗ 3 5000 м н/о +17.8 +16.7 93 +18 +18 1013.7 1006.8

 

Местоположение метеостанции Сантандер (Испания): широта 43.48 долгота -3.80 высота над уровнем моря 59 м.

В архиве по умолчанию представлена погода в Сантандере за последнюю неделю. Архивные данные за месяц целиком и за предыдущие месяцы, начиная с января 2011 года, Вы можете получить, выбрав интересующий диапазон дат из раскрывающегося списка и нажав кнопку "Ввод!".


*Определитесь, кто Вы:
робот инопланетянин человек

Внимание! Время в таблицах - всемирное. Для получения местного времени необходимо прибавить поправку, которая равна 1 ч.

Смотрите также архив погоды в соседних городах и на ближайших метеорологических станциях:

Погода в Сантандер аэропорту (Испания) (6 км)
Погода в Кастро-Урдьялесе (Испания) (47 км)
Погода на Мысе Сан-Висенте (Испания) (49 км)
Погода в Нестаресе (Испания) (62 км)
Погода в Пунта Галеа (Испания) (64 км)
Погода в Гуэньесе (Испания) (65 км)
Погода в Медина-де-Помаре (Испания) (67 км)
Погода в Бильбао (Испания) (73 км)
Погода в Полиентес-Касисе (Испания) (75 км)
Погода в Льянесе (Испания) (77 км)

Пояснения к столбцам:

Ветер - указаны скорость ветра в м/с - средняя за 10 мин, порывы в срок и между сроками (в фигурных скобках) и направление, откуда дует ветер: С - северный, СВ - северо-восточный, В - восточный, ЮВ - юго-восточный, Ю - южный, ЮЗ - юго-западный, З - западный, СЗ - северо-западный.
Видимость - горизонтальная дальность видимости в метрах или километрах. При видимости от 1 до 10 км при отсутствии осадков обычно наблюдается дымка, при ухудшении видимости до 1 км и менее - туман. В сухую погоду видимость может ухудшаться дымом, пылью или мглою.
Явления - указаны атмосферные явления, наблюдавшиеся в срок или в последний час перед сроком; фигурными скобками обозначены явления, наблюдавшиеся между сроками (за 1-3 часа до срока); квадратными скобками обозначены град или гололедные отложения с указанием их диаметра в мм.
Облачность - указаны через наклонную черту общая и нижняя облачность в баллах и высота нижней границы облаков в метрах; квадратными скобками обозначены формы облаков: Ci - перистые, Cs - перисто-слоистые, Cc - перисто-кучевые, Ac - высококучевые, As - высокослоистые, Sc - слоисто-кучевые, Ns - слоисто-дождевые, Cu - кучевые, Cb - кучево-дождевые. Подробнее классификацию облаков см. в Атласе облаков (PDF).
T - Температура воздуха - температура, измеренная на высоте 2 м над землей.
Td - Температура точки росы - температура, при понижении до которой содержащийся в воздухе водяной пар достигнет насыщения.
f - Относительная влажность воздуха - влажноcть воздуха, измеренная на высоте 2 м над землей.
Te - Эффективная температура - температура, которую ощущает одетый по сезону человек в тени. Характеристика душности погоды. При расчете учитывается влияние влажности воздуха и скорости ветра на теплоощущения человека.
Tes - Эффективная температура на солнце - температура, которую ощущает человек, с поправкой на солнечный нагрев. Характеристика знойности погоды. Зависит от высоты солнца над горизонтом, облачности и скорости ветра. Ночью, в пасмурную погоду, а также при ветре 12 м/с и более поправка равна нулю.
P - Атмосферное давление - приведенное к уровню моря атмосферное давление.
Po - Атмосферное давление - измеренное на уровне метеостанции атмосферное давление.
Tmin - Минимальная температура - минимум температуры воздуха на высоте 2 м над землей.
Tmax - Максимальная температура - максимум температуры воздуха на высоте 2 м над землей.
R - Количество осадков - Количество выпавших осадков за период времени, мм. При наведении курсора мыши на число - период времени, за который выпало указанное количество осадков.
R24 - Количество осадков - Количество выпавших осадков за 24 часа, мм.
S - Снежный покров - Высота снежного покрова, см. При наведении курсора мыши на число - состояние снежного покрова и степень покрытия местности в баллах.